{"data":{"norad_id":65544,"epoch":"2026-09-20T13:07:13.561536Z","epoch_age_seconds":148450,"freshness":"FRESH","line1":"1 65544U 25199A   26263.54668474  .00000214  00000+0  80662-4 0  9995","line2":"2 65544  85.9944 357.3321 0015530 120.8430 239.4291 14.26530152 54010","mean_motion":14.26530152,"eccentricity":0.001553,"inclination_deg":85.9944,"raan_deg":357.3321,"arg_perigee_deg":120.843,"mean_anomaly_deg":239.4291,"bstar":8.0662e-5,"rev_number":5401,"period_min":100.94423857646,"perigee_km":792.19977487206,"apogee_km":814.50548165745,"semimajor_km":7181.4896282648,"source":"CELESTRAK","updated_at":"2026-09-21T09:00:15.423177Z"}}